Location: A O Calhoun Middle School
(33.2198°N, 97.1397°W)
Time: 03:50:15
(UTC+00:00)

Cosmos 1538 Rocket - Pass Details

Date: 08 July 2022
Orbit: 752 x 791 km, 74.0° (Epoch: 07 August)

Event Time Altitude Azimuth Distance (km) Brightness Sun altitude
Exits shadow 10:25:36 12° 205° (SSW) 2,168 5.8 -11.6°
Maximum altitude 10:30:26 67° 287° (WNW) 824 4.0 -10.8°
Drops below altitude 10° 10:35:36 10° 11° (N) 2,289 7.2 -9.9°
Sets 10:37:59 0° 14° (NNE) 3,213 8.1 -9.5°
